Location: Mizzole
(45.4833°N, 11.0500°E)
Time: 14:47:06
(UTC+00:00)

NOSS 3-2 (A) - Pass Details

Date: 21 October 2019
Orbit: 816 x 1392 km, 63.4° (Epoch: 07 November)

Event Time Altitude Azimuth Distance (km) Brightness Sun altitude
Rises 17:32:01 0° 201° (SSW) 3,370 6.6 -13.2°
Reaches altitude 10° 17:34:24 10° 197° (SSW) 2,476 5.9 -13.6°
Maximum altitude 17:39:57 56° 120° (ESE) 1,082 3.5 -14.6°
Drops below altitude 10° 17:46:13 10° 44° (NE) 2,791 5.5 -15.7°
Enters shadow 17:46:23 - 44° (NE) 2,853 5.5 -15.7°
